| time (UTC) | temp C | wind direction | speed KPH | gust KPH | rain 1hr cm | rain 24hr cm | rain mn cm | humidity % | barometer mb |
| 20260503213551 | 13 | 187 | 3.2 | 4.8 | 0.00 | 1.09 | 1.09 | 96 | 1012.5 |
| 20260503213046 | 13 | 177 | 3.2 | 8.0 | 0.00 | 1.12 | 1.09 | 96 | 1012.6 |
| 20260503212547 | 13 | 192 | 3.2 | 8.0 | 0.00 | 1.17 | 1.09 | 96 | 1012.5 |
| 20260503212049 | 13 | 181 | 3.2 | 8.0 | 0.00 | 1.24 | 1.09 | 96 | 1012.5 |
| 20260503211548 | 13 | 167 | 3.2 | 8.0 | 0.00 | 1.27 | 1.09 | 96 | 1012.6 |
| 20260503211047 | 13 | 184 | 3.2 | 8.0 | 0.00 | 1.30 | 1.09 | 96 | 1012.6 |
| 20260503210543 | 13 | 177 | 1.6 | 6.4 | 0.00 | 1.35 | 1.09 | 96 | 1012.5 |
| 20260503210046 | 13 | 183 | 3.2 | 6.4 | 0.00 | 1.42 | 1.09 | 96 | 1012.5 |
| 20260503205544 | 13 | 210 | 3.2 | 6.4 | 0.00 | 1.55 | 1.09 | 96 | 1012.5 |
| 20260503205042 | 13 | 206 | 4.8 | 8.0 | 0.00 | 1.70 | 1.09 | 96 | 1012.4 |
| 20260503204542 | 13 | 176 | 4.8 | 8.0 | 0.00 | 2.13 | 1.09 | 96 | 1012.3 |
| 20260503204043 | 13 | 166 | 4.8 | 8.0 | 0.00 | 2.74 | 1.09 | 96 | 1012.4 |
| 20260503203656 | 13 | 174 | 4.8 | 9.7 | 0.00 | 2.77 | 1.09 | 96 | 1012.4 |
| 20260503202044 | 13 | 163 | 4.8 | 11.3 | 0.00 | 2.77 | 1.09 | 96 | 1012.6 |
| 20260503201542 | 13 | 156 | 4.8 | 11.3 | 0.00 | 2.77 | 1.09 | 96 | 1012.6 |
| 20260503201041 | 13 | 166 | 6.4 | 12.9 | 0.00 | 2.77 | 1.09 | 96 | 1012.5 |
| 20260503200543 | 13 | 154 | 4.8 | 12.9 | 0.00 | 2.77 | 1.09 | 96 | 1012.4 |
| 20260503200042 | 13 | 169 | 4.8 | 8.0 | 0.00 | 2.77 | 1.09 | 96 | 1012.4 |
| 20260503195542 | 13 | 171 | 4.8 | 8.0 | 0.00 | 2.77 | 1.09 | 96 | 1012.5 |
| 20260503195044 | 13 | 172 | 4.8 | 8.0 | 0.00 | 2.77 | 1.09 | 96 | 1012.3 |
| 20260503194542 | 13 | 180 | 4.8 | 9.7 | 0.00 | 2.77 | 1.09 | 96 | 1012.4 |
| 20260503194043 | 13 | 168 | 4.8 | 9.7 | 0.03 | 2.77 | 1.09 | 96 | 1012.2 |
| 20260503193542 | 13 | 155 | 6.4 | 11.3 | 0.03 | 2.77 | 1.09 | 96 | 1012.1 |
| 20260503193043 | 13 | 162 | 6.4 | 12.9 | 0.05 | 2.77 | 1.09 | 96 | 1012.1 |
| 20260503192546 | 13 | 204 | 8.0 | 12.9 | 0.05 | 2.77 | 1.09 | 96 | 1012.0 |
| 20260503192042 | 13 | 171 | 8.0 | 14.5 | 0.05 | 2.77 | 1.09 | 96 | 1011.9 |
| 20260503191614 | 14 | 182 | 6.4 | 14.5 | 0.05 | 2.77 | 1.09 | 95 | 1011.8 |
| 20260503190545 | 14 | 178 | 8.0 | 14.5 | 0.05 | 2.77 | 1.09 | 95 | 1011.7 |
| 20260503190047 | 14 | 163 | 8.0 | 14.5 | 0.05 | 2.77 | 1.09 | 95 | 1011.7 |
| 20260503185542 | 14 | 169 | 6.4 | 12.9 | 0.05 | 2.77 | 1.09 | 95 | 1011.7 |
| 20260503185041 | 14 | 166 | 3.2 | 11.3 | 0.05 | 2.77 | 1.09 | 95 | 1011.7 |
| 20260503184542 | 15 | 162 | 3.2 | 8.0 | 0.05 | 2.77 | 1.09 | 95 | 1011.4 |
| 20260503184041 | 15 | 170 | 4.8 | 14.5 | 0.05 | 2.77 | 1.09 | 95 | 1011.4 |
| 20260503183542 | 15 | 150 | 6.4 | 14.5 | 0.05 | 2.77 | 1.09 | 95 | 1011.5 |
| 20260503183127 | 15 | 171 | 6.4 | 12.9 | 0.05 | 2.74 | 1.07 | 95 | 1011.5 |
| 20260503182038 | 15 | 187 | 6.4 | 12.9 | 0.05 | 2.74 | 1.07 | 95 | 1011.5 |
| 20260503181537 | 15 | 183 | 4.8 | 12.9 | 0.05 | 2.74 | 1.07 | 95 | 1011.5 |
| 20260503181038 | 15 | 173 | 4.8 | 11.3 | 0.05 | 2.74 | 1.07 | 95 | 1011.4 |
| 20260503180538 | 15 | 170 | 4.8 | 11.3 | 0.05 | 2.74 | 1.07 | 95 | 1011.5 |
| 20260503180041 | 15 | 150 | 4.8 | 9.7 | 0.03 | 2.72 | 1.04 | 95 | 1011.4 |
| 20260503175537 | 16 | 185 | 4.8 | 9.7 | 0.03 | 2.72 | 1.04 | 95 | 1011.5 |
| 20260503175038 | 16 | 180 | 4.8 | 9.7 | 0.03 | 2.72 | 1.04 | 95 | 1011.4 |
| 20260503174537 | 16 | 163 | 4.8 | 9.7 | 0.05 | 2.72 | 1.04 | 95 | 1011.4 |
| 20260503174036 | 16 | 145 | 4.8 | 9.7 | 0.08 | 2.72 | 1.04 | 95 | 1011.4 |
| 20260503173534 | 16 | 175 | 4.8 | 9.7 | 0.05 | 2.69 | 1.02 | 95 | 1011.5 |
| 20260503173035 | 16 | 172 | 3.2 | 9.7 | 0.08 | 2.69 | 1.02 | 95 | 1011.3 |
| 20260503172534 | 16 | 173 | 3.2 | 9.7 | 0.10 | 2.69 | 1.02 | 94 | 1011.2 |
| 20260503172030 | 16 | 207 | 3.2 | 6.4 | 0.10 | 2.69 | 1.02 | 94 | 1011.1 |
| 20260503171533 | 16 | 195 | 3.2 | 9.7 | 0.10 | 2.69 | 1.02 | 94 | 1011.0 |
| 20260503171032 | 16 | 207 | 3.2 | 9.7 | 0.10 | 2.69 | 1.02 | 94 | 1010.9 |
| 20260503170545 | 16 | 193 | 3.2 | 9.7 | 0.10 | 2.69 | 1.02 | 94 | 1011.0 |
| 20260503150514 | 16 | 179 | 1.6 | 6.4 | 0.23 | 2.59 | 0.91 | 97 | 1011.0 |
| 20260503131006 | 15 | 170 | 4.8 | 11.3 | 0.05 | 2.36 | 0.69 | 96 | 1011.7 |
| 20260503130504 | 15 | 174 | 4.8 | 11.3 | 0.05 | 2.36 | 0.69 | 96 | 1011.6 |
| 20260503090503 | 16 | 233 | 9.7 | 20.9 | 0.00 | 1.70 | 0.03 | 94 | 1011.8 |
| 20260503081509 | 16 | 208 | 3.2 | 9.7 | 0.00 | 1.70 | 0.03 | 97 | 1011.5 |
| 20260503081013 | 16 | 167 | 4.8 | 9.7 | 0.00 | 1.70 | 0.03 | 97 | 1011.6 |
| 20260503080530 | 16 | 185 | 4.8 | 9.7 | 0.00 | 1.70 | 0.03 | 97 | 1011.5 |
| 20260503072502 | 15 | 170 | 4.8 | 8.0 | 0.00 | 1.70 | 0.03 | 98 | 1011.3 |
| 20260503072004 | 15 | 180 | 4.8 | 11.3 | 0.00 | 1.70 | 0.03 | 98 | 1011.4 |
| 20260503071505 | 15 | 149 | 3.2 | 11.3 | 0.00 | 1.70 | 0.03 | 98 | 1011.3 |
| 20260503071003 | 15 | 162 | 4.8 | 11.3 | 0.00 | 1.70 | 0.03 | 98 | 1011.2 |
| 20260503070503 | 15 | 214 | 4.8 | 14.5 | 0.00 | 1.70 | 0.03 | 98 | 1011.1 |
| 20260503054951 | 14 | 130 | 1.6 | 6.4 | 0.00 | 1.73 | 0.03 | 98 | 1011.3 |
| 20260503054454 | 14 | 114 | 3.2 | 6.4 | 0.00 | 1.73 | 0.03 | 98 | 1011.3 |
| 20260503053950 | 14 | 114 | 1.6 | 6.4 | 0.00 | 1.73 | 0.03 | 98 | 1011.4 |
| 20260503053451 | 14 | 153 | 1.6 | 8.0 | 0.00 | 1.73 | 0.03 | 98 | 1011.4 |
| 20260503052953 | 14 | 127 | 1.6 | 8.0 | 0.00 | 1.73 | 0.03 | 98 | 1011.4 |
| 20260503052529 | 14 | 102 | 1.6 | 6.4 | 0.00 | 1.73 | 0.03 | 98 | 1011.5 |
| 20260503051451 | 13 | 131 | 0.0 | 3.2 | 0.00 | 1.73 | 0.03 | 98 | 1011.6 |
| 20260503050949 | 13 | 131 | 1.6 | 4.8 | 0.00 | 1.73 | 0.03 | 98 | 1011.5 |
| 20260503050448 | 13 | 131 | 1.6 | 4.8 | 0.00 | 1.73 | 0.03 | 98 | 1011.5 |
| 20260503045948 | 13 | 161 | 1.6 | 4.8 | 0.00 | 1.73 | 0.03 | 98 | 1011.6 |
| 20260503045447 | 13 | 112 | 1.6 | 4.8 | 0.00 | 1.73 | 0.03 | 98 | 1011.7 |
| 20260503045018 | 13 | 112 | 1.6 | 3.2 | 0.00 | 1.73 | 0.03 | 98 | 1011.6 |
| 20260503044111 | 13 | 112 | 1.6 | 3.2 | 0.00 | 1.73 | 0.03 | 98 | 1011.5 |
| 20260503042446 | 13 | 112 | 1.6 | 6.4 | 0.00 | 1.73 | 0.03 | 97 | 1011.6 |
| 20260503041944 | 13 | 112 | 1.6 | 6.4 | 0.00 | 1.73 | 0.03 | 98 | 1011.4 |
| 20260503041446 | 13 | 105 | 1.6 | 4.8 | 0.00 | 1.73 | 0.03 | 98 | 1011.5 |
| 20260503040945 | 13 | 106 | 1.6 | 4.8 | 0.00 | 1.73 | 0.03 | 98 | 1011.5 |
| 20260503040444 | 13 | 106 | 1.6 | 6.4 | 0.00 | 1.73 | 0.03 | 98 | 1011.5 |
| 20260503035942 | 13 | 106 | 1.6 | 6.4 | 0.00 | 1.73 | 0.03 | 98 | 1011.4 |
| 20260503035513 | 13 | 106 | 3.2 | 6.4 | 0.00 | 1.73 | 0.03 | 98 | 1011.6 |
| 20260503034512 | 13 | 100 | 1.6 | 9.7 | 0.00 | 1.73 | 0.03 | 98 | 1011.7 |
| 20260503033450 | 13 | 87 | 6.4 | 12.9 | 0.00 | 1.73 | 0.03 | 98 | 1011.5 |
| 20260503032939 | 13 | 81 | 8.0 | 12.9 | 0.00 | 1.73 | 0.03 | 98 | 1011.5 |
| 20260503032440 | 13 | 70 | 4.8 | 11.3 | 0.00 | 1.73 | 0.03 | 97 | 1011.6 |
| 20260503031939 | 13 | 94 | 1.6 | 4.8 | 0.00 | 1.73 | 0.03 | 97 | 1011.9 |
| 20260503031437 | 14 | 184 | 1.6 | 4.8 | 0.00 | 1.73 | 0.03 | 97 | 1012.1 |
| 20260503030938 | 14 | 219 | 1.6 | 4.8 | 0.00 | 1.73 | 0.03 | 97 | 1012.2 |
| 20260503030446 | 14 | 216 | 3.2 | 8.0 | 0.03 | 1.73 | 0.03 | 97 | 1012.3 |
| 20260503025937 | 14 | 110 | 3.2 | 8.0 | 0.03 | 1.73 | 0.03 | 97 | 1012.2 |
| 20260503025437 | 14 | 102 | 1.6 | 4.8 | 0.03 | 1.73 | 0.03 | 97 | 1012.5 |
| 20260503024934 | 14 | 71 | 3.2 | 4.8 | 0.03 | 1.73 | 0.03 | 97 | 1012.4 |
| 20260503024433 | 14 | 193 | 3.2 | 6.4 | 0.03 | 1.73 | 0.03 | 97 | 1012.7 |
| 20260503023933 | 14 | 175 | 3.2 | 6.4 | 0.03 | 1.73 | 0.03 | 97 | 1012.8 |
| 20260503023438 | 14 | 185 | 1.6 | 4.8 | 0.03 | 1.73 | 0.03 | 97 | 1012.7 |
| 20260503022934 | 14 | 170 | 1.6 | 4.8 | 0.03 | 1.73 | 0.03 | 97 | 1012.8 |
| 20260503022432 | 14 | 216 | 3.2 | 4.8 | 0.03 | 1.73 | 0.03 | 97 | 1012.9 |
| 20260503021934 | 14 | 203 | 3.2 | 4.8 | 0.03 | 1.73 | 0.03 | 97 | 1013.0 |
| 20260503021433 | 14 | 176 | 3.2 | 6.4 | 0.03 | 1.73 | 0.03 | 97 | 1013.0 |
| 20260503020933 | 14 | 209 | 3.2 | 8.0 | 0.03 | 1.73 | 0.03 | 97 | 1012.9 |
| 20260503020439 | 14 | 170 | 3.2 | 8.0 | 0.00 | 1.70 | 0.00 | 97 | 1012.9 |
| 20260503015933 | 14 | 182 | 1.6 | 4.8 | 0.00 | 1.70 | 0.00 | 97 | 1013.0 |
| 20260503015433 | 14 | 175 | 1.6 | 4.8 | 0.00 | 1.70 | 0.00 | 97 | 1013.0 |
| 20260503014935 | 13 | 166 | 1.6 | 3.2 | 0.00 | 1.70 | 0.00 | 97 | 1013.0 |
| 20260503014510 | 13 | 166 | 1.6 | 4.8 | 0.00 | 1.70 | 0.00 | 97 | 1012.9 |
| 20260503013424 | 13 | 161 | 1.6 | 6.4 | 0.00 | 1.70 | 0.00 | 97 | 1012.9 |
| 20260503012925 | 13 | 161 | 1.6 | 6.4 | 0.00 | 1.70 | 0.00 | 97 | 1012.9 |
| 20260503012428 | 13 | 120 | 1.6 | 8.0 | 0.00 | 1.70 | 0.00 | 97 | 1012.8 |
| 20260503011957 | 13 | 120 | 1.6 | 8.0 | 0.00 | 1.70 | 0.00 | 97 | 1012.8 |
| 20260503010925 | 13 | 119 | 1.6 | 8.0 | 0.00 | 1.70 | 0.00 | 97 | 1012.8 |
| 20260503010429 | 13 | 120 | 3.2 | 8.0 | 0.00 | 1.70 | 0.00 | 97 | 1012.8 |
| 20260503010038 | 13 | 111 | 3.2 | 6.4 | 0.00 | 1.70 | 0.00 | 97 | 1012.9 |
| 20260503004558 | 13 | 91 | 1.6 | 3.2 | 0.00 | 1.70 | 0.00 | 97 | 1013.0 |
| 20260503002451 | 13 | 58 | 1.6 | 4.8 | 0.00 | 1.70 | 0.00 | 96 | 1013.0 |
| 20260503001417 | 13 | 57 | 4.8 | 6.4 | 0.00 | 1.70 | 0.00 | 96 | 1012.9 |
| 20260503000915 | 13 | 74 | 4.8 | 9.7 | 0.00 | 1.70 | 0.00 | 96 | 1013.0 |
| 20260503000412 | 13 | 79 | 4.8 | 11.3 | 0.00 | 1.70 | 0.00 | 96 | 1013.1 |
| 20260502235910 | 13 | 63 | 4.8 | 11.3 | 0.00 | 1.70 | 0.00 | 96 | 1013.0 |
| 20260502235438 | 14 | 82 | 4.8 | 9.7 | 0.00 | 1.70 | 0.00 | 96 | 1013.2 |
| 20260502234411 | 14 | 86 | 6.4 | 9.7 | 0.00 | 1.70 | 0.00 | 96 | 1013.2 |
| 20260502233910 | 14 | 67 | 4.8 | 9.7 | 0.00 | 1.70 | 0.00 | 96 | 1013.4 |
| 20260502233408 | 14 | 66 | 4.8 | 11.3 | 0.00 | 1.70 | 0.00 | 96 | 1013.4 |
| 20260502232935 | 14 | 63 | 4.8 | 14.5 | 0.00 | 1.70 | 0.00 | 96 | 1013.5 |
| 20260502231911 | 14 | 68 | 3.2 | 9.7 | 0.00 | 1.70 | 0.00 | 96 | 1013.8 |
| 20260502231409 | 14 | 123 | 1.6 | 8.0 | 0.00 | 1.70 | 0.00 | 96 | 1013.9 |
| 20260502230908 | 14 | 101 | 3.2 | 11.3 | 0.00 | 1.70 | 0.00 | 96 | 1013.8 |
| 20260502230419 | 14 | 87 | 8.0 | 14.5 | 0.00 | 1.70 | 0.00 | 95 | 1013.7 |
| 20260502225908 | 14 | 41 | 8.0 | 14.5 | 0.00 | 1.70 | 0.00 | 95 | 1013.7 |
| 20260502225409 | 14 | 58 | 6.4 | 12.9 | 0.00 | 1.70 | 0.00 | 95 | 1013.8 |
| 20260502224910 | 14 | 142 | 6.4 | 12.9 | 0.00 | 1.70 | 0.00 | 95 | 1014.0 |
| 20260502224409 | 14 | 80 | 6.4 | 12.9 | 0.00 | 1.70 | 0.00 | 95 | 1013.8 |
| 20260502223937 | 14 | 66 | 6.4 | 12.9 | 0.00 | 1.70 | 0.00 | 95 | 1014.0 |
| 20260502222909 | 14 | 59 | 4.8 | 11.3 | 0.03 | 1.70 | 0.00 | 95 | 1014.0 |
| 20260502222436 | 14 | 79 | 6.4 | 11.3 | 0.08 | 1.70 | 0.00 | 94 | 1014.0 |
| 20260502221407 | 14 | 54 | 4.8 | 9.7 | 0.18 | 1.70 | 0.00 | 94 | 1014.0 |
| 20260502220908 | 14 | 57 | 4.8 | 9.7 | 0.23 | 1.70 | 0.00 | 94 | 1013.9 |
| 20260502220403 | 14 | 51 | 4.8 | 9.7 | 0.25 | 1.70 | 0.00 | 94 | 1014.0 |
| 20260502215904 | 14 | 71 | 6.4 | 9.7 | 0.36 | 1.70 | 1.70 | 94 | 1013.9 |
| 20260502215406 | 14 | 56 | 6.4 | 9.7 | 0.48 | 1.70 | 1.70 | 94 | 1013.9 |
| 20260502214951 | 14 | 62 | 6.4 | 12.9 | 0.69 | 1.70 | 1.70 | 93 | 1014.0 |